{"data":{"norad_id":66677,"intl_designator":"2025-276M","name":"AE5RC","alt_names":[],"object_type":"PAYLOAD","status":"ACTIVE","operator":null,"country":"JPN","launch_date":"2025-11-28","launch_site_code":"AFWTR","launch_vehicle":null,"mission":null,"orbit_class":"UNKNOWN","rcs_meters":null,"size_class":null,"mass_kg":null,"dimensions":null,"purposes":[],"wikipedia_slug":null,"has_3d_model":false,"image_url":null,"decayed_at":null,"tle_current":{"epoch":"2026-09-20T22:49:47.564544Z","epoch_age_seconds":82013,"freshness":"FRESH","line1":"1 66677U 25276M   26263.95124496  .00009155  00000+0  37040-3 0  9999","line2":"2 66677  97.4097 336.7856 0005696  53.4907 306.6855 15.24914244 45033","mean_motion":15.24914244,"eccentricity":0.0005696,"inclination_deg":97.4097,"raan_deg":336.7856,"arg_perigee_deg":53.4907,"mean_anomaly_deg":306.6855,"bstar":0.0003704,"rev_number":4503,"period_min":94.431539718767,"perigee_km":487.13026969499,"apogee_km":494.95563949927,"semimajor_km":6869.1799545971,"source":"CELESTRAK","updated_at":"2026-09-21T09:00:16.122071Z"}}}